Location: Gull Harbor
(47.1000°N, 122.9000°W)
Time: 18:05:14
(UTC-08:00)

N. Korean satellite - Pass Details

Date: 25 January 2018
Orbit: 459 x 514 km, 97.2° (Epoch: 17 February)

Event Time Altitude Azimuth Distance (km) Brightness Sun altitude
Rises 06:29:05 0° 20° (NNE) 2,495 10.3 -12.9°
Reaches altitude 10° 06:31:15 10° 30° (NNE) 1,615 9.4 -12.5°
Maximum altitude 06:34:27 34° 97° (E) 783 8.4 -12.0°
Drops below altitude 10° 06:37:37 10° 164° (SSE) 1,612 9.6 -11.5°
Sets 06:39:47 0° 174° (S) 2,489 10.5 -11.1°
